| time (UTC) | temp F | wind direction | speed knots | gust knots | rain 1hr in | rain 24hr in | rain mn in | humidity % | barometer mb |
| 20260507142510 | 56 | 50 | 1.7 | 4.3 | 0.00 | 0.00 | 0.00 | 82 | 1013.0 |
| 20260507142410 | 56 | 50 | 1.7 | 4.3 | 0.00 | 0.00 | 0.00 | 82 | 1013.0 |
| 20260507140509 | 57 | 50 | 1.7 | 4.3 | 0.00 | 0.00 | 0.00 | 81 | 1014.0 |
| 20260507140409 | 57 | 50 | 1.7 | 4.3 | 0.00 | 0.00 | 0.00 | 81 | 1014.0 |
| 20260507134509 | 53 | 50 | 1.7 | 4.3 | 0.00 | 0.00 | 0.00 | 86 | 1014.0 |
| 20260507134409 | 53 | 50 | 1.7 | 4.3 | 0.00 | 0.00 | 0.00 | 86 | 1014.0 |
| 20260507132508 | 53 | 17 | 0.9 | 4.3 | 0.00 | 0.00 | 0.00 | 87 | 1014.0 |
| 20260507132408 | 53 | 17 | 0.9 | 4.3 | 0.00 | 0.00 | 0.00 | 87 | 1014.0 |
| 20260507130508 | 55 | 17 | 1.7 | 4.3 | 0.00 | 0.00 | 0.00 | 87 | 1013.0 |
| 20260507130408 | 55 | 17 | 1.7 | 4.3 | 0.00 | 0.00 | 0.00 | 87 | 1013.0 |
| 20260507124507 | 49 | 17 | 1.7 | 4.3 | 0.00 | 0.00 | 0.00 | 76 | 1014.0 |
| 20260507124407 | 49 | 17 | 1.7 | 4.3 | 0.00 | 0.00 | 0.00 | 76 | 1014.0 |
| 20260507122507 | 49 | 0 | 2.6 | 4.3 | 0.00 | 0.00 | 0.00 | 76 | 1013.0 |
| 20260507122406 | 49 | 0 | 2.6 | 4.3 | 0.00 | 0.00 | 0.00 | 76 | 1013.0 |
| 20260507120506 | 49 | 0 | 2.6 | 4.3 | 0.00 | 0.00 | 0.00 | 76 | 1013.0 |
| 20260507120406 | 49 | 0 | 2.6 | 4.3 | 0.00 | 0.00 | 0.00 | 76 | 1013.0 |
| 20260507114506 | 49 | 0 | 2.6 | 4.3 | 0.00 | 0.00 | 0.00 | 76 | 1014.0 |
| 20260507114405 | 49 | 0 | 2.6 | 4.3 | 0.00 | 0.00 | 0.00 | 76 | 1014.0 |
| 20260507112505 | 48 | 3 | 2.6 | 4.3 | 0.00 | 0.00 | 0.00 | 86 | 1013.0 |
| 20260507112405 | 48 | 3 | 2.6 | 4.3 | 0.00 | 0.00 | 0.00 | 86 | 1013.0 |
| 20260507110504 | 49 | 3 | 2.6 | 4.3 | 0.00 | 0.00 | 0.00 | 76 | 1014.0 |
| 20260507110404 | 49 | 3 | 2.6 | 4.3 | 0.00 | 0.00 | 0.00 | 76 | 1014.0 |
| 20260507104504 | 48 | 3 | 2.6 | 4.3 | 0.00 | 0.00 | 0.00 | 86 | 1014.0 |
| 20260507104404 | 48 | 3 | 2.6 | 4.3 | 0.00 | 0.00 | 0.00 | 86 | 1014.0 |
| 20260507102503 | 49 | 0 | 2.6 | 4.3 | 0.00 | 0.00 | 0.00 | 76 | 1013.0 |
| 20260507102403 | 49 | 0 | 2.6 | 4.3 | 0.00 | 0.00 | 0.00 | 76 | 1013.0 |
| 20260507100503 | 48 | 0 | 2.6 | 4.3 | 0.00 | 0.00 | 0.00 | 83 | 1013.0 |
| 20260507100403 | 48 | 0 | 2.6 | 4.3 | 0.00 | 0.00 | 0.00 | 83 | 1013.0 |
| 20260507094502 | 48 | 360 | 2.6 | 4.3 | 0.00 | 0.00 | 0.00 | 78 | 1014.0 |
| 20260507094402 | 48 | 360 | 2.6 | 4.3 | 0.00 | 0.00 | 0.00 | 78 | 1014.0 |
| 20260507092502 | 50 | 360 | 2.6 | 4.3 | 0.00 | 0.00 | 0.00 | 76 | 1013.0 |
| 20260507092402 | 50 | 360 | 2.6 | 4.3 | 0.00 | 0.00 | 0.00 | 76 | 1013.0 |
| 20260507090501 | 48 | 360 | 2.6 | 4.3 | 0.00 | 0.00 | 0.00 | 86 | 1013.0 |
| 20260507090401 | 48 | 360 | 2.6 | 4.3 | 0.00 | 0.00 | 0.00 | 86 | 1013.0 |
| 20260507084501 | 49 | 360 | 2.6 | 4.3 | 0.00 | 0.00 | 0.00 | 86 | 1013.0 |
| 20260507084401 | 49 | 360 | 2.6 | 4.3 | 0.00 | 0.00 | 0.00 | 86 | 1013.0 |
| 20260507082500 | 50 | 359 | 2.6 | 4.3 | 0.00 | 0.00 | 0.00 | 76 | 1013.0 |
| 20260507082400 | 50 | 359 | 2.6 | 4.3 | 0.00 | 0.00 | 0.00 | 76 | 1013.0 |
| 20260507080500 | 48 | 359 | 2.6 | 4.3 | 0.00 | 0.00 | 0.00 | 86 | 1013.0 |
| 20260507080400 | 48 | 359 | 2.6 | 4.3 | 0.00 | 0.00 | 0.00 | 86 | 1013.0 |
| 20260507074459 | 49 | 359 | 2.6 | 4.3 | 0.00 | 0.00 | 0.00 | 86 | 1013.0 |
| 20260507074359 | 49 | 359 | 2.6 | 4.3 | 0.00 | 0.00 | 0.00 | 86 | 1013.0 |
| 20260507072459 | 50 | 359 | 2.6 | 4.3 | 0.00 | 0.00 | 0.00 | 76 | 1013.0 |
| 20260507072359 | 50 | 359 | 2.6 | 4.3 | 0.00 | 0.00 | 0.00 | 76 | 1013.0 |
| 20260507070458 | 48 | 359 | 2.6 | 4.3 | 0.00 | 0.00 | 0.00 | 86 | 1013.0 |
| 20260507070358 | 48 | 359 | 2.6 | 4.3 | 0.00 | 0.00 | 0.00 | 86 | 1013.0 |
| 20260507064457 | 49 | 359 | 2.6 | 4.3 | 0.00 | 0.00 | 0.00 | 86 | 1014.0 |
| 20260507064357 | 49 | 359 | 2.6 | 4.3 | 0.00 | 0.00 | 0.00 | 86 | 1014.0 |
| 20260507062457 | 50 | 358 | 2.6 | 4.3 | 0.00 | 0.00 | 0.00 | 76 | 1014.0 |
| 20260507062357 | 50 | 358 | 2.6 | 4.3 | 0.00 | 0.00 | 0.00 | 76 | 1014.0 |
| 20260507060456 | 49 | 358 | 2.6 | 4.3 | 0.00 | 0.00 | 0.00 | 89 | 1014.0 |
| 20260507060356 | 49 | 358 | 2.6 | 4.3 | 0.00 | 0.00 | 0.00 | 89 | 1014.0 |
| 20260507054456 | 50 | 358 | 2.6 | 4.3 | 0.00 | 0.00 | 0.00 | 76 | 1015.0 |
| 20260507054356 | 50 | 358 | 2.6 | 4.3 | 0.00 | 0.00 | 0.00 | 76 | 1015.0 |
| 20260507052455 | 49 | 2 | 2.6 | 5.2 | 0.00 | 0.00 | 0.00 | 85 | 1014.0 |
| 20260507052355 | 49 | 2 | 2.6 | 5.2 | 0.00 | 0.00 | 0.00 | 85 | 1014.0 |
| 20260507050455 | 49 | 2 | 2.6 | 4.3 | 0.00 | 0.00 | 0.00 | 79 | 1014.0 |
| 20260507050355 | 49 | 2 | 2.6 | 4.3 | 0.00 | 0.00 | 0.00 | 79 | 1014.0 |
| 20260507044454 | 51 | 2 | 2.6 | 5.2 | 0.00 | 0.00 | 0.00 | 76 | 1015.0 |
| 20260507044354 | 51 | 2 | 2.6 | 5.2 | 0.00 | 0.00 | 0.00 | 76 | 1015.0 |
| 20260507042453 | 49 | 2 | 2.6 | 5.2 | 0.00 | 0.00 | 0.00 | 84 | 1015.0 |
| 20260507042353 | 49 | 2 | 2.6 | 5.2 | 0.00 | 0.00 | 0.00 | 84 | 1015.0 |
| 20260507040453 | 50 | 2 | 2.6 | 5.2 | 0.00 | 0.00 | 0.00 | 84 | 1014.0 |
| 20260507040353 | 50 | 2 | 2.6 | 5.2 | 0.00 | 0.00 | 0.00 | 84 | 1014.0 |
| 20260507034452 | 50 | 8 | 2.6 | 6.1 | 0.00 | 0.00 | 0.00 | 78 | 1015.0 |
| 20260507034352 | 50 | 8 | 2.6 | 6.1 | 0.00 | 0.00 | 0.00 | 78 | 1015.0 |
| 20260507032452 | 52 | 8 | 2.6 | 6.1 | 0.00 | 0.00 | 0.00 | 76 | 1014.0 |
| 20260507032352 | 52 | 8 | 2.6 | 6.1 | 0.00 | 0.00 | 0.00 | 76 | 1014.0 |
| 20260507030451 | 50 | 8 | 2.6 | 6.1 | 0.00 | 0.00 | 0.00 | 88 | 1014.0 |
| 20260507030351 | 50 | 8 | 2.6 | 6.1 | 0.00 | 0.00 | 0.00 | 88 | 1014.0 |
| 20260507024450 | 51 | 8 | 2.6 | 6.1 | 0.00 | 0.00 | 0.00 | 88 | 1015.0 |
| 20260507024350 | 51 | 8 | 2.6 | 6.1 | 0.00 | 0.00 | 0.00 | 88 | 1015.0 |
| 20260507022450 | 52 | 16 | 2.6 | 6.1 | 0.00 | 0.00 | 0.00 | 76 | 1013.0 |
| 20260507022350 | 52 | 16 | 2.6 | 6.1 | 0.00 | 0.00 | 0.00 | 76 | 1013.0 |
| 20260507020449 | 50 | 16 | 2.6 | 6.1 | 0.00 | 0.00 | 0.00 | 80 | 1013.0 |
| 20260507020349 | 50 | 16 | 2.6 | 6.1 | 0.00 | 0.00 | 0.00 | 80 | 1013.0 |
| 20260507014449 | 51 | 16 | 2.6 | 6.1 | 0.00 | 0.00 | 0.00 | 80 | 1014.0 |
| 20260507014349 | 51 | 16 | 2.6 | 6.1 | 0.00 | 0.00 | 0.00 | 80 | 1014.0 |
| 20260507012448 | 52 | 23 | 2.6 | 5.2 | 0.00 | 0.00 | 0.00 | 80 | 1012.0 |
| 20260507012348 | 52 | 23 | 2.6 | 5.2 | 0.00 | 0.00 | 0.00 | 80 | 1012.0 |
| 20260507010447 | 52 | 23 | 2.6 | 4.3 | 0.00 | 0.00 | 0.00 | 80 | 1012.0 |
| 20260507010347 | 52 | 23 | 2.6 | 4.3 | 0.00 | 0.00 | 0.00 | 80 | 1012.0 |
| 20260507004447 | 54 | 23 | 2.6 | 5.2 | 0.00 | 0.00 | 0.00 | 80 | 1014.0 |
| 20260507004347 | 54 | 23 | 2.6 | 5.2 | 0.00 | 0.00 | 0.00 | 80 | 1014.0 |
| 20260507002446 | 53 | 38 | 3.5 | 4.3 | 0.00 | 0.00 | 0.00 | 78 | 1012.0 |
| 20260507002346 | 53 | 38 | 3.5 | 4.3 | 0.00 | 0.00 | 0.00 | 78 | 1012.0 |
| 20260507000446 | 55 | 38 | 3.5 | 4.3 | 0.00 | 0.00 | 0.00 | 77 | 1012.0 |
| 20260507000346 | 55 | 38 | 3.5 | 4.3 | 0.00 | 0.00 | 0.00 | 77 | 1012.0 |
| 20260506234445 | 57 | 38 | 3.5 | 5.2 | 0.00 | 0.00 | 0.00 | 75 | 1013.0 |
| 20260506234345 | 57 | 38 | 3.5 | 5.2 | 0.00 | 0.00 | 0.00 | 75 | 1013.0 |
| 20260506232445 | 54 | 59 | 2.6 | 5.2 | 0.00 | 0.00 | 0.00 | 77 | 1012.0 |
| 20260506232344 | 54 | 59 | 2.6 | 5.2 | 0.00 | 0.00 | 0.00 | 77 | 1012.0 |
| 20260506230444 | 54 | 59 | 2.6 | 4.3 | 0.00 | 0.00 | 0.00 | 77 | 1012.0 |
| 20260506230344 | 54 | 59 | 2.6 | 4.3 | 0.00 | 0.00 | 0.00 | 77 | 1012.0 |
| 20260506224443 | 56 | 59 | 2.6 | 5.2 | 0.00 | 0.00 | 0.00 | 77 | 1012.0 |
| 20260506224343 | 56 | 59 | 2.6 | 5.2 | 0.00 | 0.00 | 0.00 | 77 | 1012.0 |
| 20260506222443 | 57 | 67 | 3.5 | 4.3 | 0.00 | 0.00 | 0.00 | 77 | 1011.0 |
| 20260506222343 | 57 | 67 | 3.5 | 4.3 | 0.00 | 0.00 | 0.00 | 77 | 1011.0 |
| 20260506220442 | 57 | 67 | 3.5 | 4.3 | 0.00 | 0.00 | 0.00 | 75 | 1011.0 |
| 20260506220342 | 57 | 67 | 3.5 | 4.3 | 0.00 | 0.00 | 0.00 | 75 | 1011.0 |
| 20260506214442 | 59 | 67 | 3.5 | 4.3 | 0.00 | 0.00 | 0.00 | 74 | 1012.0 |
| 20260506214342 | 59 | 67 | 3.5 | 4.3 | 0.00 | 0.00 | 0.00 | 74 | 1012.0 |
| 20260506212441 | 59 | 66 | 3.5 | 4.3 | 0.00 | 0.00 | 0.00 | 74 | 1011.0 |
| 20260506212341 | 59 | 66 | 3.5 | 4.3 | 0.00 | 0.00 | 0.00 | 74 | 1011.0 |
| 20260506210441 | 59 | 66 | 3.5 | 4.3 | 0.00 | 0.00 | 0.00 | 74 | 1011.0 |
| 20260506210341 | 59 | 66 | 3.5 | 4.3 | 0.00 | 0.00 | 0.00 | 74 | 1011.0 |
| 20260506204440 | 60 | 66 | 3.5 | 4.3 | 0.00 | 0.00 | 0.00 | 76 | 1012.0 |
| 20260506204340 | 60 | 66 | 3.5 | 4.3 | 0.00 | 0.00 | 0.00 | 76 | 1012.0 |
| 20260506202440 | 59 | 63 | 3.5 | 5.2 | 0.00 | 0.00 | 0.00 | 75 | 1012.0 |
| 20260506202340 | 59 | 63 | 3.5 | 5.2 | 0.00 | 0.00 | 0.00 | 75 | 1012.0 |
| 20260506200439 | 61 | 63 | 3.5 | 5.2 | 0.00 | 0.00 | 0.00 | 75 | 1012.0 |
| 20260506200339 | 61 | 63 | 3.5 | 5.2 | 0.00 | 0.00 | 0.00 | 75 | 1012.0 |
| 20260506194438 | 59 | 63 | 3.5 | 5.2 | 0.00 | 0.00 | 0.00 | 75 | 1013.0 |
| 20260506194338 | 59 | 63 | 3.5 | 5.2 | 0.00 | 0.00 | 0.00 | 75 | 1013.0 |
| 20260506192438 | 59 | 65 | 3.5 | 5.2 | 0.01 | 0.00 | 0.00 | 75 | 1013.0 |
| 20260506192338 | 59 | 65 | 3.5 | 5.2 | 0.01 | 0.00 | 0.00 | 75 | 1013.0 |
| 20260506190438 | 60 | 65 | 3.5 | 5.2 | 0.01 | 0.00 | 0.00 | 75 | 1013.0 |
| 20260506190338 | 60 | 65 | 3.5 | 5.2 | 0.01 | 0.00 | 0.00 | 75 | 1013.0 |
| 20260506184437 | 59 | 74 | 3.5 | 4.3 | 0.00 | 0.00 | 0.00 | 75 | 1013.0 |
| 20260506184336 | 59 | 74 | 3.5 | 4.3 | 0.00 | 0.00 | 0.00 | 75 | 1013.0 |
| 20260506182436 | 61 | 74 | 3.5 | 4.3 | 0.01 | 0.00 | 0.00 | 75 | 1013.0 |
| 20260506182336 | 61 | 74 | 3.5 | 4.3 | 0.01 | 0.00 | 0.00 | 75 | 1013.0 |
| 20260506180435 | 59 | 74 | 3.5 | 4.3 | 0.00 | 0.00 | 0.00 | 76 | 1013.0 |
| 20260506180335 | 59 | 74 | 3.5 | 4.3 | 0.00 | 0.00 | 0.00 | 76 | 1013.0 |
| 20260506174435 | 61 | 74 | 3.5 | 4.3 | 0.01 | 0.00 | 0.00 | 76 | 1014.0 |
| 20260506174335 | 61 | 74 | 3.5 | 4.3 | 0.01 | 0.00 | 0.00 | 76 | 1014.0 |
| 20260506172435 | 61 | 76 | 2.6 | 4.3 | 0.00 | 0.00 | 0.00 | 72 | 1014.0 |
| 20260506172335 | 61 | 76 | 2.6 | 4.3 | 0.00 | 0.00 | 0.00 | 72 | 1014.0 |
| 20260506170434 | 60 | 76 | 2.6 | 4.3 | 0.00 | 0.00 | 0.00 | 72 | 1014.0 |
| 20260506170334 | 60 | 76 | 2.6 | 4.3 | 0.00 | 0.00 | 0.00 | 72 | 1014.0 |
| 20260506164434 | 60 | 76 | 2.6 | 4.3 | 0.00 | 0.00 | 0.00 | 72 | 1014.0 |
| 20260506164333 | 60 | 76 | 2.6 | 4.3 | 0.00 | 0.00 | 0.00 | 72 | 1014.0 |
| 20260506162433 | 60 | 61 | 2.6 | 4.3 | 0.00 | 0.00 | 0.00 | 73 | 1014.0 |
| 20260506162333 | 60 | 61 | 2.6 | 4.3 | 0.00 | 0.00 | 0.00 | 73 | 1014.0 |
| 20260506160433 | 60 | 61 | 2.6 | 4.3 | 0.00 | 0.00 | 0.00 | 73 | 1014.0 |
| 20260506160332 | 60 | 61 | 2.6 | 4.3 | 0.00 | 0.00 | 0.00 | 73 | 1014.0 |
| 20260506154432 | 60 | 61 | 2.6 | 4.3 | 0.00 | 0.00 | 0.00 | 73 | 1014.0 |
| 20260506154332 | 60 | 61 | 2.6 | 4.3 | 0.00 | 0.00 | 0.00 | 73 | 1014.0 |
| 20260506152432 | 58 | 41 | 2.6 | 4.3 | 0.00 | 0.00 | 0.00 | 78 | 1014.0 |
| 20260506152331 | 58 | 41 | 2.6 | 4.3 | 0.00 | 0.00 | 0.00 | 78 | 1014.0 |
| 20260506150431 | 58 | 41 | 2.6 | 4.3 | 0.00 | 0.00 | 0.00 | 79 | 1014.0 |
| 20260506150331 | 58 | 41 | 2.6 | 4.3 | 0.00 | 0.00 | 0.00 | 79 | 1014.0 |
| 20260506144431 | 57 | 21 | 3.5 | 6.1 | 0.00 | 0.00 | 0.00 | 80 | 1014.0 |
| 20260506144330 | 57 | 21 | 3.5 | 6.1 | 0.00 | 0.00 | 0.00 | 80 | 1014.0 |